Home   Weather   Portsmouth   Past weeks

Flag for USA Past Weather in Portsmouth, Virginia, USA — Yesterday and Last 2 Weeks

Now
73 °F

Scattered clouds.


Feels Like: 77 °F
Forecast: 53 / 73 °F
Wind: 7 mph from Southeast

Location: Norfolk Naval Air Station

Current Time: Feb 24, 2017 at 4:50:55 pm

Latest Report: Feb 24, 2017 at 3:59 pm


Visibility: 10 mi

Pressure: 29.87 "Hg

Humidity: 57%

Dew Point: 57 °F

Location of PortsmouthLocation

Past Weather in Portsmouth — Graph

°F

Portsmouth Temperature Yesterday

Maximum temperature yesterday: 75 °F (at 2:59 pm)
Minimum temperature yesterday: 57 °F (at 6:59 am)
Average temperature yesterday: 64 °F

High & Low Weather Summary for the Past Weeks

 TemperatureHumidityPressure
High81 °F (Feb 12, 1:59 pm)97% (Feb 13, 1:59 am)30.49 "Hg (Feb 13, 1:59 am)
Low27 °F (Feb 10, 6:59 am)22% (Feb 18, 2:59 pm)29.46 "Hg (Feb 15, 2:37 pm)
Average51 °F57%29.97 "Hg
* Reported Feb 9 2:59 pm — Feb 24 2:59 pm, Portsmouth, Weather by CustomWeather, © 2017

Note: Actual official high and low records may vary slightly from our data, if they occured in-between our weather recording intervals... More about our weather records

Advertising

Portsmouth Weather History for the Previous 24 Hours

Scroll right to see more
 ConditionsComfort  
Time TempWeatherWind HumidityBarometerVisibility
2:59 pm
Fri, Feb 24
73 °FBroken clouds.No wind57%29.87 "Hg10 mi
1:59 pm67 °FBroken clouds.7 mph66%29.89 "Hg10 mi
12:59 pm69 °FScattered clouds.8 mph63%29.91 "Hg10 mi
10:59 am73 °FScattered clouds.9 mph57%29.96 "Hg10 mi
9:59 am71 °FScattered clouds.10 mph63%29.97 "Hg10 mi
8:59 am67 °FPassing clouds.3 mph73%29.97 "Hg10 mi
7:59 am58 °FPassing clouds.No wind90%29.97 "Hg10 mi
6:59 am51 °FFog.No wind92%29.95 "Hg5 mi
5:59 am52 °FFog.No wind93%29.95 "Hg5 mi
4:59 am52 °FClear.No wind89%29.95 "Hg10 mi
3:59 am55 °FClear.3 mph90%29.93 "Hg10 mi
2:59 am56 °FClear.No wind84%29.95 "Hg10 mi
1:59 am58 °FClear.3 mph81%29.95 "Hg10 mi
12:59 am58 °FClear.5 mph81%29.95 "Hg10 mi
11:59 pm
Thu, Feb 23
58 °FClear.6 mph81%29.96 "Hg10 mi
10:59 pm60 °FClear.5 mph75%29.96 "Hg10 mi
9:59 pm60 °FClear.6 mph75%29.96 "Hg10 mi
8:59 pm62 °FClear.6 mph73%29.94 "Hg10 mi
7:59 pm63 °FClear.6 mph70%29.94 "Hg10 mi
6:59 pm65 °FPassing clouds.6 mph66%29.93 "Hg10 mi
5:59 pm68 °FPassing clouds.7 mph59%29.92 "Hg10 mi
4:59 pm71 °FScattered clouds.10 mph53%29.90 "Hg10 mi
Weather by CustomWeather, © 2017

See weather overviewHow to use our weather pages